Fulton, NY

8:52 PM EST on December 13, 2019 (GMT -0500)
Oswego County

Weather History for KFZY - May, 2019

Change the Weather History Date:

Friday, May 17, 2019

  Actual Average (KSYR) Record (KSYR)
Temperature  
Mean Temperature 56 °F 58 °F  
Max Temperature 64 °F 69 °F 91 °F (1977)
Min Temperature 48 °F 47 °F 30 °F (1983)
Degree Days  
Heating Degree Days 8 8  
Month to date heating degree days 170  
Since 1 July heating degree days 6505  
Cooling Degree Days 0 1  
Month to date cooling degree days 7  
Year to date cooling degree days 11  
Growing Degree Days 6 (Base 50)    
Moisture  
Dew Point 45 °F    
Average Humidity 67    
Maximum Humidity 86    
Minimum Humidity 53    
Precipitation  
Precipitation 0.08 in 0.11 in 0.91 in (1916)
Month to date precipitation 1.70  
Year to date precipitation 12.41  
Snow  
Snow 0.00 in 0.00 in 1.20 in (1973)
Month to date snowfall 0.1  
Since 1 July snowfall 123.8  
Snow Depth -    
Sea Level Pressure  
Sea Level Pressure 29.76 in    
Wind  
Wind Speed 7 mph (WNW)    
Max Wind Speed 17 mph    
Max Gust Speed 23 mph    
Visibility 10 miles    
Events Rain    
T = Trace of Precipitation, MM = Missing Value Source: NWS Daily Summary

Daily Weather History Graph

Daily Weather History Graph

Search for Another Location

Airport or City:

Astronomy

May. 17, 2019 Rise Set
Actual Time 5:39 AM EDT 8:24 PM EDT
Civil Twilight 5:06 AM EDT 8:58 PM EDT
Nautical Twilight 4:24 AM EDT 9:40 PM EDT
Astronomical Twilight 3:36 AM EDT 10:28 PM EDT
Moon 7:06 PM EDT (5/17) 5:14 AM EDT (5/17)
Length of Visible Light 15h 51m
Length of Day
14h 45m
Waxing Gibbous, 98% of the Moon is Illuminated
May 17
Waxing Gibbous
May 18
Full
May 26
Last Quarter
Jun 3
New
Jun 10
First Quarter

Hourly Weather History & Observations

Time (EDT) Temp. Dew Point Humidity Pressure Visibility Wind Dir Wind Speed Gust Speed Precip Events Conditions
12:54 AM 53.1 °F 45.0 °F 74% 29.75 in 10.0 mi Variable 3.5 mph - 0.01 in Rain Light Rain
1:54 AM 54.0 °F 45.0 °F 72% 29.71 in 10.0 mi Calm Calm - 0.01 in Rain Light Rain
2:54 AM 54.0 °F 45.0 °F 72% 29.67 in 10.0 mi Variable 6.9 mph - 0.01 in   Overcast
3:54 AM 53.1 °F 46.9 °F 80% 29.67 in 10.0 mi Variable 6.9 mph - 0.04 in Rain Light Rain
4:54 AM 53.1 °F 48.0 °F 83% 29.66 in 10.0 mi ESE 3.5 mph - 0.01 in Rain Light Rain
5:54 AM 52.0 °F 48.0 °F 86% 29.68 in 10.0 mi Calm Calm - 0.00 in   Scattered Clouds
6:54 AM 54.0 °F 50.0 °F 86% 29.69 in 10.0 mi Calm Calm - N/A   Partly Cloudy
7:54 AM 60.1 °F 51.1 °F 72% 29.69 in 10.0 mi Calm Calm - N/A   Clear
8:54 AM 63.0 °F 51.1 °F 65% 29.70 in 10.0 mi West 6.9 mph - N/A   Scattered Clouds
9:54 AM 63.0 °F 51.1 °F 65% 29.71 in 10.0 mi WNW 10.4 mph - N/A   Overcast
10:54 AM 62.1 °F 48.9 °F 62% 29.72 in 10.0 mi NW 12.7 mph - N/A   Overcast
11:54 AM 60.1 °F 48.0 °F 64% 29.73 in 10.0 mi NW 11.5 mph - N/A   Overcast
12:54 PM 57.9 °F 46.9 °F 67% 29.75 in 10.0 mi WNW 12.7 mph - N/A   Overcast
1:54 PM 55.0 °F 45.0 °F 69% 29.76 in 10.0 mi NW 16.1 mph - N/A   Overcast
2:54 PM 59.0 °F 46.0 °F 62% 29.77 in 10.0 mi West 10.4 mph - N/A   Mostly Cloudy
3:54 PM 59.0 °F 45.0 °F 60% 29.79 in 10.0 mi WNW 16.1 mph 21.9 mph N/A   Clear
4:54 PM 59.0 °F 44.1 °F 58% 29.80 in 10.0 mi WNW 15.0 mph - N/A   Clear
5:54 PM 60.1 °F 43.0 °F 53% 29.82 in 10.0 mi WNW 11.5 mph - N/A   Clear
6:54 PM 57.9 °F 41.0 °F 53% 29.84 in 10.0 mi West 17.3 mph 23.0 mph N/A   Clear
7:54 PM 55.9 °F 39.9 °F 55% 29.86 in 10.0 mi West 15.0 mph 23.0 mph N/A   Clear
8:54 PM 53.1 °F 39.9 °F 61% 29.88 in 10.0 mi West 8.1 mph - N/A   Clear
9:54 PM 52.0 °F 39.9 °F 63% 29.89 in 10.0 mi WNW 8.1 mph - N/A   Clear
10:54 PM 50.0 °F 39.0 °F 66% 29.90 in 10.0 mi West 5.8 mph - N/A   Clear
11:54 PM 48.0 °F 39.0 °F 71% 29.91 in 10.0 mi NNE 4.6 mph - N/A   Clear